• en Belgique
  • Liste des pays
  • À 7 jours
  • Température de l'eau
  • Carte satellitaire
  • Carte météo
  • Widgets météo
  • user-avatar
    Se connecter

    Météo par heure à Korçё

    Ce jour, 19 Juillet, Jeudi

    Heure Température Précipitation Vent Pression Humidité
    00:00 +14°C° 0 mm 1 m/s 665 mmHg 80%
    01:00 +14°C° 0 mm 1 m/s 665 mmHg 80%
    02:00 +14°C° 0 mm 1 m/s 665 mmHg 79%
    03:00 +14°C° 0 mm 1 m/s 664 mmHg 79%
    04:00 +13°C° 0 mm 1 m/s 664 mmHg 78%
    05:00 +15°C° 0 mm 1 m/s 665 mmHg 71%
    06:00 +17°C° 0 mm 2 m/s 665 mmHg 65%
    07:00 +19°C° 0 mm 2 m/s 666 mmHg 58%
    08:00 +21°C° 0 mm 3 m/s 666 mmHg 53%
    09:00 +22°C° 0 mm 3 m/s 667 mmHg 48%
    10:00 +23°C° 0 mm 4 m/s 667 mmHg 44%
    11:00 +25°C° 0 mm 4 m/s 667 mmHg 43%
    12:00 +25°C° 0 mm 4 m/s 667 mmHg 43%
    13:00 +26°C° 0 mm 5 m/s 667 mmHg 43%
    14:00 +25°C° 0 mm 4 m/s 667 mmHg 44%
    15:00 +25°C° 0 mm 4 m/s 667 mmHg 46%
    16:00 +25°C° 0 mm 4 m/s 667 mmHg 47%
    17:00 +22°C° 0 mm 3 m/s 666 mmHg 55%
    18:00 +20°C° 0 mm 3 m/s 666 mmHg 62%
    19:00 +18°C° 0 mm 2 m/s 665 mmHg 69%
    20:00 +17°C° 0 mm 2 m/s 665 mmHg 72%
    21:00 +16°C° 0 mm 2 m/s 666 mmHg 74%
    22:00 +15°C° 0 mm 1 m/s 666 mmHg 77%
    23:00 +15°C° 0 mm 1 m/s 666 mmHg 78%

    Demain, 20 Juillet, Vendredi

    Heure Température Précipitation Vent Pression Humidité
    00:00 +15°C° 0 mm 1 m/s 665 mmHg 79%
    01:00 +15°C° 0 mm 1 m/s 665 mmHg 79%
    02:00 +15°C° 0 mm 1 m/s 665 mmHg 80%
    03:00 +15°C° 0 mm 1 m/s 665 mmHg 81%
    04:00 +15°C° 0 mm 1 m/s 665 mmHg 81%
    05:00 +16°C° 0 mm 1 m/s 665 mmHg 76%
    06:00 +19°C° 0 mm 1 m/s 666 mmHg 71%
    07:00 +21°C° 0 mm 1 m/s 666 mmHg 65%
    08:00 +22°C° 0 mm 1 m/s 667 mmHg 59%
    09:00 +24°C° 0 mm 2 m/s 667 mmHg 54%
    10:00 +25°C° 0 mm 2 m/s 668 mmHg 48%
    11:00 +25°C° 0 mm 2 m/s 668 mmHg 47%
    12:00 +26°C° 0 mm 2 m/s 668 mmHg 46%
    13:00 +26°C° 0 mm 3 m/s 668 mmHg 45%
    14:00 +26°C° 0 mm 3 m/s 667 mmHg 47%
    15:00 +26°C° 0 mm 3 m/s 667 mmHg 48%
    16:00 +26°C° 0 mm 3 m/s 667 mmHg 50%
    17:00 +24°C° 0 mm 3 m/s 667 mmHg 56%
    18:00 +21°C° 0 mm 2 m/s 666 mmHg 62%
    19:00 +20°C° 0 mm 2 m/s 666 mmHg 69%
    20:00 +19°C° 0 mm 2 m/s 666 mmHg 71%
    21:00 +19°C° 0 mm 1 m/s 666 mmHg 73%
    22:00 +18°C° 0 mm 1 m/s 667 mmHg 75%
    23:00 +18°C° 0 mm 1 m/s 667 mmHg 76%

    Après-demain, 21 Juillet, Samedi

    Heure Température Précipitation Vent Pression Humidité
    00:00 +16°C° 0 mm 1 m/s 667 mmHg 76%
    01:00 +16°C° 0 mm 1 m/s 666 mmHg 77%
    02:00 +16°C° 0 mm 1 m/s 666 mmHg 77%
    03:00 +16°C° 0 mm 1 m/s 666 mmHg 77%
    04:00 +15°C° 0 mm 1 m/s 666 mmHg 78%
    05:00 +18°C° 0 mm 1 m/s 667 mmHg 72%
    06:00 +20°C° 0 mm 1 m/s 667 mmHg 66%
    07:00 +22°C° 0 mm 1 m/s 668 mmHg 60%
    08:00 +24°C° 0 mm 1 m/s 668 mmHg 53%
    09:00 +25°C° 0 mm 2 m/s 669 mmHg 46%
    10:00 +27°C° 0 mm 2 m/s 669 mmHg 39%
    11:00 +27°C° 0 mm 2 m/s 669 mmHg 37%
    12:00 +28°C° 0 mm 3 m/s 669 mmHg 35%
    13:00 +29°C° 0 mm 3 m/s 669 mmHg 33%
    14:00 +28°C° 0 mm 3 m/s 669 mmHg 35%
    15:00 +28°C° 0 mm 4 m/s 669 mmHg 36%
    16:00 +28°C° 0 mm 4 m/s 668 mmHg 38%
    17:00 +25°C° 0 mm 3 m/s 668 mmHg 44%
    18:00 +23°C° 0 mm 2 m/s 667 mmHg 51%
    19:00 +21°C° 0 mm 1 m/s 667 mmHg 58%
    20:00 +20°C° 0 mm 1 m/s 667 mmHg 58%
    21:00 +19°C° 0 mm 1 m/s 667 mmHg 59%
    22:00 +19°C° 0 mm 1 m/s 667 mmHg 60%
    23:00 +18°C° 0 mm 1 m/s 667 mmHg 59%

    22 Juillet, Dimanche

    Heure Température Précipitation Vent Pression Humidité
    00:00 +18°C° 0 mm 1 m/s 666 mmHg 58%
    01:00 +18°C° 0 mm 1 m/s 666 mmHg 57%
    02:00 +18°C° 0 mm 1 m/s 666 mmHg 55%
    03:00 +18°C° 0 mm 1 m/s 666 mmHg 54%
    04:00 +18°C° 0 mm 1 m/s 666 mmHg 52%
    05:00 +20°C° 0 mm 1 m/s 666 mmHg 50%
    06:00 +22°C° 0 mm 1 m/s 667 mmHg 49%
    07:00 +24°C° 0 mm 1 m/s 667 mmHg 47%
    08:00 +26°C° 0 mm 2 m/s 667 mmHg 42%
    09:00 +28°C° 0 mm 2 m/s 668 mmHg 38%
    10:00 +29°C° 0 mm 3 m/s 668 mmHg 33%
    11:00 +30°C° 0 mm 3 m/s 668 mmHg 32%
    12:00 +30°C° 0 mm 4 m/s 667 mmHg 31%
    13:00 +32°C° 0 mm 4 m/s 667 mmHg 31%
    14:00 +30°C° 0 mm 4 m/s 666 mmHg 32%
    15:00 +30°C° 0 mm 4 m/s 666 mmHg 34%
    16:00 +29°C° 0 mm 4 m/s 666 mmHg 36%
    17:00 +27°C° 0 mm 4 m/s 665 mmHg 44%
    18:00 +25°C° 0 mm 3 m/s 664 mmHg 51%
    19:00 +21°C° 0 mm 3 m/s 664 mmHg 59%
    20:00 +21°C° 0 mm 3 m/s 664 mmHg 62%
    21:00 +20°C° 0 mm 3 m/s 663 mmHg 65%
    22:00 +19°C° 0 mm 3 m/s 663 mmHg 68%
    23:00 +18°C° 0 mm 2 m/s 663 mmHg 71%

    23 Juillet, Lundi

    Heure Température Précipitation Vent Pression Humidité
    00:00 +17°C° 0 mm 2 m/s 662 mmHg 74%
    01:00 +17°C° 0 mm 2 m/s 662 mmHg 76%
    02:00 +16°C° 0 mm 2 m/s 662 mmHg 80%
    03:00 +16°C° 0 mm 2 m/s 662 mmHg 83%
    04:00 +16°C° 0 mm 2 m/s 662 mmHg 86%
    05:00 +17°C° 0 mm 2 m/s 662 mmHg 82%
    06:00 +18°C° 0 mm 2 m/s 662 mmHg 79%
    07:00 +19°C° 0 mm 2 m/s 662 mmHg 75%
    08:00 +21°C° 0 mm 2 m/s 663 mmHg 67%
    09:00 +23°C° 0 mm 2 m/s 663 mmHg 58%
    10:00 +24°C° 0 mm 3 m/s 663 mmHg 50%
    11:00 +25°C° 0,1 mm 3 m/s 663 mmHg 50%
    12:00 +25°C° 0,1 mm 4 m/s 663 mmHg 49%
    13:00 +25°C° 0,1 mm 4 m/s 663 mmHg 49%
    14:00 +25°C° 0,2 mm 4 m/s 662 mmHg 51%
    15:00 +23°C° 0,2 mm 4 m/s 662 mmHg 52%
    16:00 +24°C° 0,2 mm 3 m/s 662 mmHg 54%
    17:00 +21°C° 0,2 mm 3 m/s 662 mmHg 62%
    18:00 +19°C° 0,2 mm 2 m/s 661 mmHg 69%
    19:00 +18°C° 0,2 mm 2 m/s 661 mmHg 77%
    20:00 +17°C° 0,3 mm 2 m/s 661 mmHg 80%
    21:00 +16°C° 0,3 mm 1 m/s 661 mmHg 84%
    22:00 +15°C° 0,3 mm 1 m/s 661 mmHg 87%
    23:00 +15°C° 0 mm 1 m/s 661 mmHg 87%

    24 Juillet, Mardi

    Heure Température Précipitation Vent Pression Humidité
    00:00 +15°C° 0 mm 1 m/s 660 mmHg 88%
    01:00 +15°C° 0 mm 1 m/s 660 mmHg 88%
    02:00 +14°C° 0 mm 1 m/s 660 mmHg 88%
    03:00 +14°C° 0 mm 1 m/s 660 mmHg 87%
    04:00 +14°C° 0 mm 1 m/s 660 mmHg 87%
    05:00 +16°C° 0 mm 1 m/s 661 mmHg 81%
    06:00 +18°C° 0 mm 1 m/s 661 mmHg 75%
    07:00 +20°C° 0 mm 1 m/s 662 mmHg 69%
    08:00 +20°C° 0 mm 2 m/s 662 mmHg 63%
    09:00 +23°C° 0 mm 2 m/s 663 mmHg 56%
    10:00 +25°C° 0 mm 2 m/s 663 mmHg 49%
    11:00 +25°C° 0,3 mm 2 m/s 663 mmHg 49%
    12:00 +25°C° 0,3 mm 2 m/s 663 mmHg 49%
    13:00 +26°C° 0,3 mm 2 m/s 663 mmHg 49%
    14:00 +25°C° 0,9 mm 2 m/s 663 mmHg 52%
    15:00 +25°C° 0,9 mm 2 m/s 663 mmHg 54%
    16:00 +24°C° 0,9 mm 2 m/s 663 mmHg 57%
    17:00 +23°C° 0,8 mm 2 m/s 663 mmHg 63%
    18:00 +20°C° 0,8 mm 2 m/s 663 mmHg 68%
    19:00 +20°C° 0,8 mm 1 m/s 663 mmHg 74%
    20:00 +19°C° 0,2 mm 1 m/s 663 mmHg 76%
    21:00 +18°C° 0,2 mm 1 m/s 663 mmHg 78%
    22:00 +18°C° 0,2 mm 1 m/s 663 mmHg 81%
    23:00 +16°C° 0 mm 1 m/s 663 mmHg 81%
    Voir plus